Meteopurmerend
purmerend
Purmerend - Baaienwijk



My webcam  My webcam


waarschuwing voor Onweer Meer informatie blitzortung!


Regen radar Meer informatie rain snow radar


Bezoek onze andere website:

CandyAppleRed WebdesignWebdesign Purmerend Candy Apple Red

MeteopurmerendBlog

Template documentation
and downloads



Onweer van: 19-06-2019 18:00 tot: 23:00 waarschuwing voor: Onweer niveau: Geel info button
Enkele onweersbuien, mogelijk met hagel en windstoten tot ca. 75 km/uur.Verkeer en buitenactiviteiten kunnen hinder ondervinden.Mijd open water en open gebied, schuil niet onder bomen.Volg weerberichten en waarschuwingen.

15 daagse weersverwachting Clermont-Ferrand (FR)

  • Overzicht
  • Per uur
  • 15 dagen
  • Extra
  • Vergelijk
  • Kaarten
  • Dagkaart
  • Meer »
  • Info
  • Statistieken
  • Directe link
    Temp 6h Neerslag Wind  
 05:59     21:40    Daglengte: 15:41 Vandaag
20:00
22°
 
2
 05:59     21:41    Daglengte: 15:42 Morgen
02:00
17°
4.5 mm
1
08:00
17°
2.1 mm
1
14:00
21°
7.9 mm
2
20:00
19°
12.6 mm
2
 05:59     21:41    Daglengte: 15:42 Vrijdag 21 Jun
02:00
16°
3.0 mm
2
08:00
15°
 
2
14:00
20°
3.2 mm
3
20:00
18°
19.0 mm
2
 05:59     21:41    Daglengte: 15:42 Zaterdag 22 Jun
02:00
15°
31.6 mm
2
08:00
14°
17.5 mm
2
14:00
19°
 
3
Locatie info
Region: Auvergne-Rhône-Alpes
Latitude: 45.7767°N
Longitude: 3.0772°E
406 masl
Postcode: 63000
Temp/Neerslag /Baro Onweer/Dauwpunt
    Temp Baro 1h Neerslag Dauwpunt Wind UV Bewolking  
 05:59     21:40    Daglengte: 15:41 Vandaag
20:00
22°
1012.4 hPa
48%
15.1°
2
Windvlaag: -1.1 m/s
54%
21:00
20°
1012.9 hPa 2.5 mm
81%
17.4°
1
Windvlaag: -0.9 m/s
67% warningclass
22:00
19°
1013.6 hPa
66%
15.9°
1
Windvlaag: -0.9 m/s
48%
23:00
18°
1014.0 hPa
23%
15.6°
1
Windvlaag: -0.8 m/s
38%
 05:59     21:41    Daglengte: 15:42 Morgen
00:00
18°
1014.0 hPa
21%
15.5°
1
Windvlaag: -0.2 m/s
60%
01:00
17°
1014.2 hPa
17%
15.4°
1
Windvlaag: 0.3 m/s
58%
02:00
17°
1014.3 hPa 2.0 mm
15%
15.3°
1
Windvlaag: 0.4 m/s
50%
03:00
16°
1014.4 hPa 2.1 mm
14%
15.3°
1
Windvlaag: 0.5 m/s
64% warningclass
04:00
16°
1014.3 hPa
14%
15.4°
1
Windvlaag: 0.5 m/s
70%
05:00
16°
1014.2 hPa
14%
15.0°
1
Windvlaag: 0.3 m/s
61%
06:00
16°
1014.5 hPa
18%
14.7°
1
Windvlaag: 0.1 m/s
27%
07:00
16°
1014.9 hPa
16%
14.8°
1
Windvlaag: 0.3 m/s
29%
08:00
17°
1015.1 hPa
19%
15.1°
1
Windvlaag: 0.8 m/s
8%
09:00
18°
1015.1 hPa
22%
15.0°
1
Windvlaag: 1.3 m/s
24%
10:00
19°
1014.9 hPa 2.3 mm
30%
14.7°
1
Windvlaag: 0.9 m/s
14% warningclass
11:00
20°
1014.8 hPa
29%
14.9°
1
Windvlaag: 0.2 m/s
39%
12:00
21°
1014.8 hPa
35%
14.3°
1
Windvlaag: 0.6 m/s
60%
13:00
21°
1015.1 hPa 2.7 mm
27%
13.0°
1
Windvlaag: 0.4 m/s
59%
14:00
21°
1014.8 hPa 2.9 mm
31%
13.2°
2
Windvlaag: -1 m/s
57%
15:00
21°
1014.9 hPa 2.7 mm
31%
13.6°
2
Windvlaag: -0.8 m/s
56%
16:00
22°
1014.7 hPa 2.7 mm
33%
14.5°
2
Windvlaag: -0.8 m/s
73%
17:00
22°
1014.6 hPa 2.3 mm
70%
14.2°
2
Windvlaag: -0.8 m/s
78%
18:00
21°
1014.8 hPa 2.3 mm
31%
14.0°
2
Windvlaag: -0.4 m/s
69%
19:00
21°
1015.1 hPa 2.7 mm
27%
14.4°
2
Windvlaag: -1 m/s
78%
20:00
19°
1015.5 hPa
64%
13.2°
2
Windvlaag: -0.8 m/s
60%
21:00
18°
1016.0 hPa
65%
14.0°
2
Windvlaag: -1 m/s
81%
22:00
17°
1016.7 hPa 3.0 mm
61%
13.7°
1
Windvlaag: -1.1 m/s
75%
23:00
17°
1017.3 hPa
24%
13.0°
2
Windvlaag: -0.5 m/s
56%
 05:59     21:41    Daglengte: 15:42 Vrijdag 21 Jun
00:00
17°
1017.5 hPa
19%
13.3°
2
Windvlaag: -0.1 m/s
77%
01:00
16°
1017.6 hPa
15%
13.5°
2
Windvlaag: 0.5 m/s
88%
02:00
16°
1017.5 hPa
14%
13.4°
2
Windvlaag: 0.3 m/s
58%
03:00
15°
1017.5 hPa
14%
13.1°
2
Windvlaag: 0.2 m/s
28%
04:00
15°
1017.1 hPa
14%
13.2°
2
Windvlaag: 0.1 m/s
26%
05:00
15°
1017.1 hPa
14%
13.0°
2
Windvlaag: 0.1 m/s
26%
06:00
14°
1017.2 hPa
14%
13.0°
2
Windvlaag: 0.1 m/s
39%
07:00
15°
1017.5 hPa
15%
13.1°
2
Windvlaag: 0.1 m/s
68%
08:00
15°
1017.7 hPa
14%
13.6°
2
Windvlaag: -0.5 m/s
65%
09:00
16°
1017.9 hPa
14%
13.8°
2
Windvlaag: -1.3 m/s
59%
10:00
17°
1018.1 hPa
14%
14.3°
2
Windvlaag: -1.3 m/s
54%
11:00
18°
1017.9 hPa
14%
13.9°
3
Windvlaag: -1.7 m/s
75%
12:00
19°
1017.8 hPa
14%
14.3°
3
Windvlaag: -2 m/s
77%
13:00
20°
1017.5 hPa
14%
14.1°
3
Windvlaag: -2.4 m/s
87%
14:00
20°
1017.0 hPa 3.2 mm
14%
14.6°
3
Windvlaag: -2.3 m/s
88%
15:00
20°
1016.4 hPa
23%
15.4°
3
Windvlaag: -2.8 m/s
90%
16:00
20°
1016.2 hPa
74%
14.7°
3
Windvlaag: -2.4 m/s
83%
17:00
20°
1016.2 hPa 4.8 mm
100%
14.0°
4
Windvlaag: -2.5 m/s
99% warningclass
18:00
20°
1016.5 hPa 4.6 mm
99%
14.3°
3
Windvlaag: -2.5 m/s
98%
19:00
18°
1016.6 hPa 4.6 mm
100%
15.3°
2
Windvlaag: -1.4 m/s
98% warningclass
20:00
18°
1016.9 hPa 5.0 mm
100%
15.8°
2
Windvlaag: -1.7 m/s
99%
21:00
17°
1017.0 hPa 5.1 mm
100%
15.6°
3
Windvlaag: -1.7 m/s
91%
22:00
16°
1017.5 hPa 4.6 mm
100%
15.1°
3
Windvlaag: -1.2 m/s
93%
23:00
16°
1018.0 hPa 4.8 mm
100%
15.0°
3
Windvlaag: -0.7 m/s
98%
 05:59     21:41    Daglengte: 15:42 Zaterdag 22 Jun
00:00
15°
1018.0 hPa 5.1 mm
100%
14.8°
3
Windvlaag: -1.1 m/s
100%
01:00
15°
1018.2 hPa 5.2 mm
100%
14.6°
3
Windvlaag: -1.4 m/s
100%
02:00
15°
1018.1 hPa 6.9 mm
100%
14.5°
2
Windvlaag: -2.1 m/s
98%
03:00
14°
1018.0 hPa 6.9 mm
100%
14.0°
2
Windvlaag: -2.5 m/s
99%
04:00
14°
1017.9 hPa 5.2 mm
100%
13.3°
2
Windvlaag: -2.1 m/s
100%
05:00
14°
1017.9 hPa 5.4 mm
100%
12.8°
3
Windvlaag: -1.5 m/s
98%
06:00
13°
1018.3 hPa
100%
12.2°
3
Windvlaag: -0.7 m/s
94%
07:00
13°
1018.6 hPa
36%
11.8°
3
Windvlaag: -1.2 m/s
99%
08:00
14°
1018.7 hPa
21%
11.7°
2
Windvlaag: -0.9 m/s
77%
09:00
14°
1018.6 hPa
23%
11.9°
2
Windvlaag: -1.3 m/s
67%
10:00
15°
1018.3 hPa
21%
11.9°
2
Windvlaag: -1.4 m/s
70%
11:00
16°
1018.1 hPa
21%
12.1°
2
Windvlaag: -2.7 m/s
64%
12:00
18°
1017.9 hPa
21%
12.5°
3
Windvlaag: -3.3 m/s
81%
13:00
18°
1017.8 hPa
21%
12.2°
3
Windvlaag: -3 m/s
93%
14:00
19°
1017.5 hPa
21%
12.1°
3
Windvlaag: -1.5 m/s
87%
15:00
20°
1017.3 hPa
21%
12.7°
3
Windvlaag: 4.5 m/s
86%
16:00
20°
1017.3 hPa
21%
12.6°
3
Windvlaag: 3.5 m/s
84%
17:00
20°
1017.1 hPa
21%
12.7°
3
Windvlaag: 3.3 m/s
59%
18:00
20°
1017.1 hPa
21%
12.4°
3
Windvlaag: 3.2 m/s
56%
19:00
19°
1017.0 hPa
21%
12.0°
2
Windvlaag: 2.4 m/s
23%
Temp/Neerslag /Baro Onweer/Dauwpunt
    Temp Baro Neerslag Dauwpunt Wind Bewolking  
 05:59     21:40    Daglengte: 15:41 Vandaag
20:00
22°
1012.4 hPa   15.1°
2
54%
23:00
18°
1014.0 hPa 2.5 mm 15.6°
1
38%
 05:59     21:41    Daglengte: 15:42 Morgen
02:00
17°
1014.3 hPa 2.0 mm 15.3°
1
50%
05:00
16°
1014.2 hPa 2.1 mm 15.0°
1
61%
08:00
17°
1015.1 hPa   15.1°
1
8%
11:00
20°
1014.8 hPa 2.3 mm 14.9°
1
39%
14:00
21°
1014.8 hPa 5.6 mm 13.2°
2
57%
17:00
22°
1014.6 hPa 7.7 mm 14.2°
2
78%
20:00
19°
1015.5 hPa 5.0 mm 13.2°
2
60%
23:00
17°
1017.3 hPa 3.0 mm 13.0°
2
56%
 05:59     21:41    Daglengte: 15:42 Vrijdag 21 Jun
02:00
16°
1017.5 hPa   13.4°
2
58%
05:00
15°
1017.1 hPa   13.0°
2
26%
08:00
15°
1017.7 hPa   13.6°
2
65%
11:00
18°
1017.9 hPa   13.9°
3
75%
14:00
20°
1017.0 hPa 3.2 mm 14.6°
3
88%
17:00
20°
1016.2 hPa 4.8 mm 14.0°
4
99% warningclass
20:00
18°
1016.9 hPa 14.2 mm 15.8°
2
99%
23:00
16°
1018.0 hPa 14.5 mm 15.0°
3
98%
 05:59     21:41    Daglengte: 15:42 Zaterdag 22 Jun
02:00
15°
1018.1 hPa 17.1 mm 14.5°
2
98%
05:00
14°
1017.9 hPa 17.5 mm 12.8°
3
98%
08:00
14°
1018.7 hPa   11.7°
2
77%
11:00
16°
1018.1 hPa   12.1°
2
64%
14:00
19°
1017.5 hPa   12.1°
3
87%
17:00
20°
1017.1 hPa   12.7°
3
59%
20:00
19°
1017.0 hPa   11.8°
2
12%
23:00
17°
1017.6 hPa 30.0 mm 13.0°
2
2%
 06:00     21:41    Daglengte: 15:41 Zondag 23 Jun
02:00
16°
1017.8 hPa 30.0 mm 12.8°
1
0%
05:00
16°
1017.4 hPa 30.0 mm 12.9°
1
31%
08:00
17°
1017.1 hPa 30.0 mm 13.1°
2
62%
11:00
21°
1016.6 hPa 30.0 mm 14.3°
2
72%
14:00
25°
1016.1 hPa 30.0 mm 14.9°
2
82%
17:00
26°
1015.3 hPa 30.0 mm 15.7°
2
41%
20:00
26°
1014.6 hPa 30.0 mm 17.2°
1
0%
23:00
22°
1015.4 hPa 30.0 mm 15.8°
2
39%
 06:00     21:41    Daglengte: 15:41 Maandag 24 Jun
02:00
19°
1016.0 hPa 30.0 mm 14.3°
2
77%
05:00
20°
1016.0 hPa 30.0 mm 13.3°
3
70%
08:00
21°
1015.9 hPa 30.0 mm 12.4°
3
63%
11:00
27°
1015.4 hPa 30.0 mm 13.3°
2
69%
14:00
32°
Voelt als: 31.0°
1014.7 hPa 30.0 mm 12.6°
2
74%
17:00
31°
Voelt als: 31.0°
1014.6 hPa 30.0 mm 15.5°
2
59%
20:00
30°
1014.6 hPa 30.0 mm 18.2°
2
44%
23:00
25°
1016.4 hPa 30.0 mm 17.4°
2
67%
 06:00     21:41    Daglengte: 15:41 Dinsdag 25 Jun
02:00
20°
1018.0 hPa 30.0 mm 15.8°
1
90%
05:00
21°
1017.9 hPa 30.0 mm 13.1°
2
61%
08:00
22°
1018.0 hPa 30.0 mm 10.2°
3
32%
11:00
28°
Voelt als: 27.3°
1017.3 hPa 30.0 mm 12.3°
3
53%
14:00
33°
Voelt als: 32.2°
1016.7 hPa 30.0 mm 13.8°
3
74%
17:00
33°
Voelt als: 32.2°
1016.1 hPa 30.0 mm 15.1°
2
45%
20:00
32°
1015.7 hPa 30.0 mm 16.8°
2
17%
23:00
27°
Voelt als: 26.9°
1016.9 hPa 30.0 mm 13.1°
3
43%
 06:01     21:41    Daglengte: 15:40 Woensdag 26 Jun
02:00
22°
1017.9 hPa 30.0 mm 9.9°
3
69%
05:00
23°
1017.7 hPa 30.0 mm 10.0°
3
34%
08:00
23°
1017.5 hPa 30.0 mm 9.8°
4
0%
11:00
30°
Voelt als: 29.1°
1016.8 hPa 30.0 mm 11.5°
3
0%
14:00
37°
Voelt als: 35.7°
1016.1 hPa 30.0 mm 12.6°
2
0%
17:00
35°
Voelt als: 34.7°
1015.8 hPa   14.3°
3
0%
20:00
33°
1015.6 hPa 60.0 mm 16.2°
4
0%
 06:01     21:41    Daglengte: 15:40 Donderdag 27 Jun
02:00
24°
1017.4 hPa 60.0 mm 12.8°
4
0%
08:00
24°
1017.2 hPa 60.0 mm 13.2°
4
0%
14:00
36°
Voelt als: 36.0°
1016.0 hPa 60.0 mm 15.1°
2
0%
20:00
33°
1015.2 hPa 61.0 mm 18.6°
2
1%
 06:02     21:41    Daglengte: 15:39 Vrijdag 28 Jun
02:00
24°
1017.2 hPa 64.5 mm 16.5°
2
0%
08:00
25°
1016.1 hPa 65.4 mm 12.9°
3
0%
14:00
36°
Voelt als: 35.0°
1013.8 hPa 65.9 mm 13.5°
2
0%
20:00
34°
1011.6 hPa 66.5 mm 21.6°
1
4%
 06:02     21:41    Daglengte: 15:39 Zaterdag 29 Jun
02:00
24°
1012.9 hPa 66.6 mm 12.3°
3
0%
08:00
20°
1015.2 hPa 66.6 mm 18.7°
0
0%
14:00
29°
1013.6 hPa 0.1 mm 17.2°
1
17%
20:00
27°
1012.7 hPa 0.6 mm 20.3°
1
20%
 06:03     21:41    Daglengte: 15:38 Zondag 30 Jun
02:00
19°
1014.6 hPa 0.5 mm 16.4°
1
16%
08:00
20°
1015.1 hPa 0.6 mm 17.2°
1
31%
14:00
27°
1014.4 hPa 0.8 mm 17.8°
1
31%
20:00
25°
1014.1 hPa 2.0 mm 19.4°
2
29%
 06:03     21:41    Daglengte: 15:38 Maandag 01 Jul
02:00
17°
1016.2 hPa 0.9 mm 15.7°
1
28%
08:00
18°
1016.6 hPa 0.5 mm 16.3°
1
27%
14:00
25°
1015.7 hPa 0.9 mm 16.3°
2
30%
20:00
23°
1015.3 hPa 1.2 mm 17.3°
2
36%
 06:04     21:41    Daglengte: 15:37 Dinsdag 02 Jul
02:00
16°
1016.8 hPa 0.6 mm 14.1°
1
31%
08:00
17°
1016.5 hPa 0.2 mm 15.1°
1
35%
14:00
24°
1015.1 hPa 0.9 mm 15.2°
1
34%
20:00
22°
1014.5 hPa 1.7 mm 17.1°
2
44%
 06:04     21:40    Daglengte: 15:36 Woensdag 03 Jul
02:00
15°
1015.7 hPa 1.7 mm 13.6°
1
34%
08:00
16°
1015.8 hPa 1.2 mm 14.7°
1
43%
14:00
23°
1015.0 hPa 1.6 mm 15.4°
2
44%
20:00
22°
1015.0 hPa 1.7 mm 16.8°
2
41%
 06:05     21:40    Daglengte: 15:35 Donderdag 04 Jul
02:00
15°
1016.6 hPa 0.5 mm 13.2°
1
35%
08:00
16°
1017.1 hPa 1.2 mm 14.4°
1
49%
14:00
23°
1016.4 hPa 1.3 mm 15.0°
1
44%
  CAPE Lifted Index Hail Supercell Tornado SRH 3km CL BTM PRES CL TOP PRES Swiss DWD icon SMHI TS
 05:59     21:40    Daglengte: 15:41 Vandaag
20:00 1560 J/kg -5.0 K 0 % 0 % 0 % 0 m²/s² 0 0 -3.02 95
21:00 1623 J/kg -5.5 K 0 % 0 % 0 % 0 m²/s² 0 0 -3.73 80
22:00 1210 J/kg -4.5 K 0 % 0 % 0 % 0 m²/s² 0 0 -2.61 1
23:00 1013 J/kg -4.1 K 0 % 0 % 0 % 0 m²/s² 0 0 -2.33 2
 05:59     21:41    Daglengte: 15:42 Morgen
00:00 770 J/kg -3.7 K 0 % 0 % 0 % 0 m²/s² 0 0 -1.54 1
01:00 664 J/kg -3.3 K 0 % 0 % 0 % 0 m²/s² 0 0 -1.41 3
02:00 571 J/kg -3.3 K 0 % 0 % 0 % 0 m²/s² 0 0 -1.2 3
03:00 503 J/kg -3.5 K 0 % 0 % 0 % 0 m²/s² 0 0 -2.03 3
04:00 450 J/kg -3.8 K 0 % 0 % 0 % 0 m²/s² 0 0 -2.45 3
05:00 435 J/kg -3.6 K 0 % 0 % 0 % 0 m²/s² 0 0 -2.34 3
06:00 430 J/kg -3.1 K 0 % 0 % 0 % 0 m²/s² 0 0 -2.2 3
07:00 421 J/kg -2.9 K 0 % 0 % 0 % 0 m²/s² 0 0 -2.09 3
08:00 452 J/kg -2.6 K 0 % 0 % 0 % 0 m²/s² 0 0 -1.79 1
09:00 494 J/kg -2.8 K 0 % 0 % 0 % 0 m²/s² 0 0 -1.81 2
10:00 567 J/kg -3.1 K 0 % 0 % 0 % 0 m²/s² 0 0 -2.11 2
11:00 587 J/kg -3.2 K 0 % 0 % 0 % 0 m²/s² 0 0 -2.06 3
12:00 561 J/kg -3.1 K 0 % 0 % 0 % 0 m²/s² 0 0 -1.69 3
13:00 623 J/kg -3.4 K 0 % 0 % 0 % 0 m²/s² 0 0 -1.69 2
14:00 569 J/kg -3.2 K 0 % 0 % 0 % 0 m²/s² 0 0 -1.19 3
15:00 607 J/kg -3.5 K 0 % 0 % 0 % 0 m²/s² 0 0 -1.22 3
16:00 680 J/kg -3.7 K 0 % 0 % 0 % 0 m²/s² 0 0 -1.33 2
17:00 498 J/kg -3.1 K 0 % 0 % 0 % 0 m²/s² 0 0 -0.28 3
18:00 692 J/kg -3.9 K 0 % 0 % 0 % 0 m²/s² 0 0 -1.08 3
19:00 843 J/kg -4.1 K 0 % 0 % 0 % 0 m²/s² 0 0 -1.67 3
20:00 749 J/kg -3.7 K 0 % 0 % 0 % 0 m²/s² 0 0 -1.63 3
21:00 588 J/kg -2.6 K 0 % 0 % 0 % 0 m²/s² 0 0 -2 3
22:00 397 J/kg -1.9 K 0 % 0 % 0 % 0 m²/s² 0 0 -0.82 3
23:00 276 J/kg -1.7 K 0 % 0 % 0 % 0 m²/s² 0 0 -0.62 3
 05:59     21:41    Daglengte: 15:42 Vrijdag 21 Jun
00:00 167 J/kg -1.5 K 0 % 0 % 0 % 0 m²/s² 0 0 -0.21 3
01:00 100 J/kg -1.7 K 0 % 0 % 0 % 0 m²/s² 0 0 -0.5 3
02:00 61 J/kg -1.9 K 0 % 0 % 0 % 0 m²/s² 0 0 -0.64 2
03:00 13 J/kg -1.5 K 0 % 0 % 0 % 0 m²/s² 0 0 -0.03 2
04:00 0 J/kg -1.2 K 0 % 0 % 0 % 0 m²/s² 0 0 0.51 1
05:00 0 J/kg -0.7 K 0 % 0 % 0 % 0 m²/s² 0 0 1.43 3
06:00 0 J/kg -0.6 K 0 % 0 % 0 % 0 m²/s² 0 0 1.83 1
07:00 0 J/kg -0.5 K 0 % 0 % 0 % 0 m²/s² 0 0 2.38 3
08:00 1 J/kg -0.3 K 0 % 0 % 0 % 0 m²/s² 0 0 2.19 3
09:00 16 J/kg -0.5 K 0 % 0 % 0 % 0 m²/s² 0 0 1.57 2
10:00 289 J/kg -1.4 K 0 % 0 % 0 % 0 m²/s² 0 0 0.31 3
11:00 523 J/kg -2.0 K 0 % 0 % 0 % 0 m²/s² 0 0 -0.35 3
12:00 559 J/kg -1.8 K 0 % 0 % 0 % 0 m²/s² 0 0 -0.6 3
13:00 624 J/kg -1.9 K 0 % 0 % 0 % 0 m²/s² 0 0 -0.79 3
14:00 630 J/kg -2.4 K 0 % 0 % 0 % 0 m²/s² 0 0 -1.92 3
15:00 672 J/kg -2.6 K 0 % 0 % 0 % 0 m²/s² 0 0 -2.48 3
16:00 866 J/kg -2.6 K 0 % 0 % 0 % 0 m²/s² 0 0 -2.03 61
17:00 988 J/kg -2.8 K 0 % 0 % 0 % 0 m²/s² 0 0 -2.23 61
18:00 760 J/kg -2.4 K 0 % 0 % 0 % 0 m²/s² 0 0 -1.65 61
19:00 616 J/kg -2.2 K 0 % 0 % 0 % 0 m²/s² 0 0 -2.02 61
20:00 527 J/kg -1.4 K 0 % 0 % 0 % 0 m²/s² 0 0 -1.37 61
21:00 317 J/kg -1.3 K 0 % 0 % 0 % 0 m²/s² 0 0 -0.76 61
22:00 0 J/kg -1.1 K 0 % 0 % 0 % 0 m²/s² 0 0 -0.2 61
23:00 0 J/kg -0.8 K 0 % 0 % 0 % 0 m²/s² 0 0 0.01 61
 05:59     21:41    Daglengte: 15:42 Zaterdag 22 Jun
00:00 3 J/kg -0.1 K 0 % 0 % 0 % 0 m²/s² 0 0 1.37 61
01:00 4 J/kg 0.2 K 0 % 0 % 0 % 0 m²/s² 0 0 1.73 61
02:00 5 J/kg -0.1 K 0 % 0 % 0 % 0 m²/s² 0 0 1.49 61
03:00 8 J/kg 1.0 K 0 % 0 % 0 % 0 m²/s² 0 0 2.77 61
04:00 11 J/kg 2.3 K 0 % 0 % 0 % 0 m²/s² 0 0 4.46 61
05:00 8 J/kg 3.3 K 0 % 0 % 0 % 0 m²/s² 0 0 5.25 61
06:00 6 J/kg 3.6 K 0 % 0 % 0 % 0 m²/s² 0 0 4.5 61
07:00 0 J/kg 4.8 K 0 % 0 % 0 % 0 m²/s² 0 0 5.76 3
08:00 0 J/kg 5.0 K 0 % 0 % 0 % 0 m²/s² 0 0 6.65 3
09:00 0 J/kg 6.1 K 0 % 0 % 0 % 0 m²/s² 0 0 8.14 1
10:00 0 J/kg 6.0 K 0 % 0 % 0 % 0 m²/s² 0 0 8.1 1
11:00 8 J/kg 6.1 K 0 % 0 % 0 % 0 m²/s² 0 0 8.65 1
12:00 7 J/kg 5.8 K 0 % 0 % 0 % 0 m²/s² 0 0 8.92 1
13:00 8 J/kg 5.3 K 0 % 0 % 0 % 0 m²/s² 0 0 8.69 3
14:00 8 J/kg 5.2 K 0 % 0 % 0 % 0 m²/s² 0 0 8.68 1
15:00 5 J/kg 4.9 K 0 % 0 % 0 % 0 m²/s² 0 0 8.2 3
16:00 3 J/kg 5.1 K 0 % 0 % 0 % 0 m²/s² 0 0 8.07 3
17:00 11 J/kg 5.2 K 0 % 0 % 0 % 0 m²/s² 0 0 8.26 2
18:00 7 J/kg 5.5 K 0 % 0 % 0 % 0 m²/s² 0 0 8.65 3
19:00 0 J/kg 5.4 K 0 % 0 % 0 % 0 m²/s² 0 0 8.64 3
Temp Baro Wind Neerslag
  EWN Forecast EWN WRFDA DWD ICON FMI HIRLAM MET Norway GFS
 05:59     21:40    Daglengte: 15:41 Vandaag
20:00 21.5° 1012.4 hPa 1.5 m/s 0.0 mm 22.8° 1010.8 hPa 3.0 m/s 7.5 mm 19.0° 1012.8 hPa 1.2 m/s 2.4 mm 20.8° 1012.9 hPa 2.1 m/s 0.0 mm 21.8° 1012.3 hPa 1.0 m/s 0.0 mm 21.0° 1012.5 hPa 0.9 m/s
23:00 18.2° 1014.0 hPa 1.3 m/s 2.5 mm 19.7° 1012.9 hPa 1.4 m/s 26.5 mm 17.3° 1014.5 hPa 0.7 m/s 1.0 mm 17.7° 1014.0 hPa 1.7 m/s 0.0 mm 18.1° 1013.9 hPa 1.1 m/s 0.0 mm 15.6° 1015.0 hPa 1.1 m/s
 05:59     21:41    Daglengte: 15:42 Morgen
02:00 16.6° 1014.3 hPa 1.1 m/s 2.0 mm 17.7° 1013.4 hPa 1.7 m/s 28.1 mm 15.8° 1014.7 hPa 1.2 m/s 0.0 mm 16.5° 1014.6 hPa 1.0 m/s 0.0 mm 16.5° 1013.7 hPa 1.1 m/s 0.0 mm 14.8° 1015.5 hPa 1.4 m/s
05:00 15.8° 1014.2 hPa 1.2 m/s 2.1 mm 16.0° 1013.1 hPa 1.2 m/s 28.3 mm 15.4° 1014.7 hPa 0.9 m/s 0.0 mm 15.0° 1015.2 hPa 1.7 m/s 0.0 mm 15.7° 1014.0 hPa 1.2 m/s 0.3 mm 13.7° 1014.9 hPa 1.3 m/s
08:00 16.8° 1015.1 hPa 1.0 m/s 0.0 mm 16.9° 1014.1 hPa 0.9 m/s 29.6 mm 16.5° 1015.4 hPa 0.3 m/s 0.0 mm 16.4° 1015.1 hPa 0.9 m/s 0.0 mm 16.7° 1015.3 hPa 1.2 m/s 0.0 mm 16.2° 1015.7 hPa 0.8 m/s
11:00 20.3° 1014.8 hPa 0.8 m/s 2.3 mm 19.7° 1014.4 hPa 1.6 m/s 30.1 mm 19.4° 1015.7 hPa 0.6 m/s 0.0 mm 20.3° 1014.6 hPa 1.7 m/s 0.0 mm 20.8° 1014.7 hPa 0.3 m/s 0.3 mm 20.0° 1015.8 hPa 1.0 m/s
14:00 21.3° 1014.8 hPa 1.8 m/s 5.6 mm 21.1° 1014.4 hPa 3.3 m/s 30.2 mm 20.4° 1016.2 hPa 2.3 m/s 0.0 mm 21.4° 1014.5 hPa 1.6 m/s 0.0 mm 22.8° 1014.6 hPa 1.7 m/s 0.4 mm 20.3° 1015.5 hPa 1.0 m/s
17:00 21.9° 1014.6 hPa 1.7 m/s 7.7 mm 22.6° 1013.0 hPa 3.0 m/s 30.7 mm 22.4° 1014.6 hPa 0.5 m/s 0.0 mm 20.7° 1014.6 hPa 3.1 m/s 0.0 mm 22.2° 1014.6 hPa 1.4 m/s 0.8 mm 19.7° 1014.5 hPa 1.5 m/s
20:00 19.4° 1015.5 hPa 2.0 m/s 5.0 mm 20.0° 1014.2 hPa 3.6 m/s 34.7 mm 19.2° 1016.5 hPa 2.2 m/s 0.0 mm 19.2° 1015.6 hPa 2.4 m/s 0.0 mm 20.6° 1015.0 hPa 0.5 m/s 0.5 mm 18.9° 1015.2 hPa 0.6 m/s
23:00 16.9° 1017.3 hPa 1.6 m/s 3.0 mm 18.3° 1015.5 hPa 2.5 m/s 42.5 mm 16.1° 1017.5 hPa 1.3 m/s 0.0 mm 15.8° 1017.5 hPa 1.5 m/s 0.0 mm 17.9° 1017.0 hPa 2.4 m/s 0.3 mm 14.6° 1016.4 hPa 1.4 m/s
 05:59     21:41    Daglengte: 15:42 Vrijdag 21 Jun
02:00 16.0° 1017.5 hPa 1.9 m/s 0.0 mm 16.3° 1016.0 hPa 2.3 m/s 44.5 mm 15.2° 1018.2 hPa 0.8 m/s 0.0 mm 14.3° 1017.6 hPa 2.0 m/s 0.0 mm 16.3° 1017.2 hPa 2.1 m/s 0.0 mm 13.3° 1016.9 hPa 0.1 m/s
05:00 14.8° 1017.1 hPa 1.6 m/s 0.0 mm 15.4° 1015.2 hPa 2.0 m/s 44.5 mm 13.4° 1018.3 hPa 0.9 m/s 0.0 mm 13.6° 1017.0 hPa 1.4 m/s 0.0 mm 15.4° 1017.1 hPa 1.6 m/s 0.0 mm 12.1° 1017.2 hPa 0.3 m/s
08:00 15.5° 1017.7 hPa 1.8 m/s 0.0 mm 15.1° 1015.6 hPa 2.4 m/s 44.6 mm 15.0° 1018.5 hPa 0.8 m/s 0.0 mm 14.0° 1016.8 hPa 1.8 m/s 0.0 mm 16.3° 1017.8 hPa 2.1 m/s 0.0 mm 14.4° 1017.5 hPa 0.8 m/s
11:00 18.3° 1017.9 hPa 2.6 m/s 0.0 mm 19.4° 1015.7 hPa 3.7 m/s 44.7 mm 17.9° 1018.6 hPa 2.1 m/s 0.0 mm 15.6° 1016.9 hPa 2.3 m/s 0.0 mm 19.2° 1018.1 hPa 2.6 m/s 0.0 mm 16.2° 1017.5 hPa 1.6 m/s
14:00 20.2° 1017.0 hPa 3.1 m/s 3.2 mm 20.6° 1015.0 hPa 4.1 m/s 45.3 mm 20.0° 1017.7 hPa 3.5 m/s 0.0 mm 16.1° 1016.8 hPa 2.6 m/s 0.0 mm 20.8° 1017.3 hPa 2.4 m/s 0.7 mm 18.3° 1016.5 hPa 1.5 m/s
17:00 20.3° 1016.2 hPa 3.5 m/s 4.8 mm 20.5° 1013.9 hPa 3.1 m/s 63.0 mm 18.3° 1017.7 hPa 3.1 m/s 0.5 mm 21.2° 1016.3 hPa 3.5 m/s 0.6 mm 18.6° 1015.7 hPa 0.5 m/s
20:00 17.6° 1016.9 hPa 2.2 m/s 14.2 mm 18.3° 1012.8 hPa 2.9 m/s 74.9 mm 15.9° 1018.9 hPa 1.7 m/s 1.9 mm 17.9° 1017.1 hPa 1.8 m/s 5.4 mm 17.3° 1015.9 hPa 2.1 m/s
23:00 15.7° 1018.0 hPa 2.7 m/s 14.5 mm 15.8° 1014.2 hPa 5.2 m/s 83.7 mm 14.3° 1020.2 hPa 1.9 m/s 4.1 mm 16.1° 1018.2 hPa 2.1 m/s 2.5 mm 14.3° 1017.4 hPa 0.7 m/s
 05:59     21:41    Daglengte: 15:42 Zaterdag 22 Jun
02:00 14.8° 1018.1 hPa 2.4 m/s 17.1 mm 14.3° 1014.0 hPa 5.0 m/s 85.2 mm 13.5° 1020.4 hPa 1.7 m/s 2.6 mm 15.0° 1018.2 hPa 1.8 m/s 6.7 mm 15.2° 1017.4 hPa 1.1 m/s
05:00 13.6° 1017.9 hPa 2.6 m/s 17.5 mm 13.5° 1014.3 hPa 5.0 m/s 97.1 mm 12.4° 1020.4 hPa 1.7 m/s 0.5 mm 13.8° 1017.9 hPa 2.4 m/s 4.4 mm 14.5° 1016.9 hPa 1.7 m/s
08:00 13.5° 1018.7 hPa 2.2 m/s 0.0 mm 13.8° 1015.2 hPa 4.3 m/s 106.0 mm 13.1° 1020.9 hPa 1.2 m/s 0.1 mm 13.5° 1018.8 hPa 2.1 m/s 0.7 mm 13.8° 1017.9 hPa 1.6 m/s
11:00 16.4° 1018.1 hPa 2.5 m/s 0.0 mm 15.9° 1015.2 hPa 4.5 m/s 106.4 mm 16.2° 1020.0 hPa 1.8 m/s 0.0 mm 16.9° 1018.1 hPa 2.4 m/s 16.8° 1017.6 hPa 1.8 m/s
14:00 19.0° 1017.5 hPa 3.0 m/s 0.0 mm 15.4° 1015.2 hPa 3.3 m/s 106.5 mm 19.4° 1019.4 hPa 3.2 m/s 0.0 mm 20.4° 1017.4 hPa 2.7 m/s 20.9° 1016.8 hPa 2.8 m/s
17:00 19.9° 1017.1 hPa 3.0 m/s 0.0 mm 16.4° 1015.1 hPa 1.8 m/s 106.7 mm 20.1° 1018.0 hPa 3.4 m/s 0.0 mm 20.4° 1017.2 hPa 3.0 m/s 22.0° 1015.1 hPa 2.6 m/s
20:00 19.4° 1017.0 hPa 2.1 m/s 0.0 mm 18.3° 1014.1 hPa 0.7 m/s 107.0 mm 18.3° 1018.3 hPa 0.7 m/s 0.0 mm 20.4° 1017.1 hPa 3.4 m/s 20.5° 1015.4 hPa 1.3 m/s
23:00 17.1° 1017.6 hPa 1.7 m/s 30.0 mm 17.2° 1017.6 hPa 1.8 m/s 15.5° 1016.9 hPa 0.4 m/s 30.0 mm
 06:00     21:41    Daglengte: 15:41 Zondag 23 Jun
02:00 15.5° 1017.8 hPa 1.0 m/s 30.0 mm 15.6° 1017.9 hPa 1.0 m/s 14.6° 1016.3 hPa 1.1 m/s 30.0 mm
05:00 16.0° 1017.4 hPa 1.4 m/s 30.0 mm 16.1° 1017.5 hPa 1.4 m/s 14.0° 1016.0 hPa 1.4 m/s 30.0 mm
08:00 16.7° 1017.1 hPa 1.9 m/s 30.0 mm 16.7° 1017.2 hPa 1.9 m/s 16.6° 1016.1 hPa 1.6 m/s 30.0 mm
11:00 21.0° 1016.6 hPa 1.8 m/s 30.0 mm 20.9° 1016.7 hPa 1.9 m/s 22.8° 1015.5 hPa 1.6 m/s 30.0 mm
14:00 25.2° 1016.1 hPa 1.8 m/s 30.0 mm 25.0° 1016.2 hPa 1.8 m/s 27.0° 1015.1 hPa 1.4 m/s 30.0 mm
17:00 25.7° 1015.3 hPa 1.5 m/s 30.0 mm 25.4° 1015.4 hPa 1.6 m/s 28.6° 1014.3 hPa 1.0 m/s 30.0 mm
20:00 25.7° 1014.6 hPa 1.2 m/s 30.0 mm 25.8° 1014.6 hPa 1.3 m/s 24.6° 1014.6 hPa 0.6 m/s 30.0 mm
23:00 22.1° 1015.4 hPa 1.6 m/s 30.0 mm 22.4° 1015.3 hPa 1.6 m/s 19.9° 1016.2 hPa 1.5 m/s 30.0 mm
 06:00     21:41    Daglengte: 15:41 Maandag 24 Jun
02:00 18.9° 1016.0 hPa 2.0 m/s 30.0 mm 18.9° 1016.0 hPa 2.0 m/s 18.7° 1016.4 hPa 2.3 m/s 30.0 mm
05:00 19.9° 1016.0 hPa 2.6 m/s 30.0 mm 19.9° 1016.0 hPa 2.5 m/s 18.9° 1016.0 hPa 2.6 m/s 30.0 mm
08:00 21.0° 1015.9 hPa 3.0 m/s 30.0 mm 21.0° 1015.9 hPa 3.1 m/s 20.8° 1016.5 hPa 2.3 m/s 30.0 mm
11:00 26.7° 1015.4 hPa 2.5 m/s 30.0 mm 26.6° 1015.3 hPa 2.5 m/s 27.8° 1016.1 hPa 1.7 m/s 30.0 mm
14:00 32.1° 1014.7 hPa 2.0 m/s 30.0 mm 32.1° 1014.7 hPa 2.0 m/s 31.9° 1015.3 hPa 2.1 m/s 30.0 mm
17:00 31.3° 1014.6 hPa 2.2 m/s 30.0 mm 31.1° 1014.7 hPa 2.2 m/s 33.0° 1014.6 hPa 1.7 m/s 30.0 mm
20:00 30.1° 1014.6 hPa 2.3 m/s 30.0 mm 30.1° 1014.6 hPa 2.4 m/s 29.6° 1014.9 hPa 0.9 m/s 30.0 mm
23:00 25.0° 1016.4 hPa 1.8 m/s 30.0 mm 25.2° 1016.4 hPa 1.8 m/s 22.7° 1016.7 hPa 2.0 m/s 30.0 mm
 06:00     21:41    Daglengte: 15:41 Dinsdag 25 Jun
02:00 20.3° 1018.0 hPa 1.3 m/s 30.0 mm 20.3° 1018.1 hPa 1.2 m/s 19.7° 1016.9 hPa 1.9 m/s 30.0 mm
05:00 21.0° 1017.9 hPa 2.2 m/s 30.0 mm 21.2° 1018.0 hPa 2.2 m/s 18.4° 1016.6 hPa 2.2 m/s 30.0 mm
08:00 22.0° 1018.0 hPa 3.2 m/s 30.0 mm 22.2° 1018.0 hPa 3.3 m/s 20.2° 1017.6 hPa 2.2 m/s 30.0 mm
11:00 27.6° 1017.3 hPa 2.9 m/s 30.0 mm 27.6° 1017.3 hPa 3.1 m/s 28.1° 1017.7 hPa 1.0 m/s 30.0 mm
14:00 33.0° 1016.7 hPa 2.7 m/s 30.0 mm 33.0° 1016.6 hPa 2.9 m/s 32.8° 1017.2 hPa 1.0 m/s 30.0 mm
17:00 32.5° 1016.1 hPa 2.4 m/s 30.0 mm 32.5° 1016.1 hPa 2.5 m/s 32.7° 1016.5 hPa 1.9 m/s 30.0 mm
20:00 31.7° 1015.7 hPa 2.0 m/s 30.0 mm 32.0° 1015.6 hPa 2.1 m/s 28.7° 1016.8 hPa 0.4 m/s 30.0 mm
23:00 26.9° 1016.9 hPa 2.5 m/s 30.0 mm 27.2° 1016.8 hPa 2.6 m/s 23.4° 1018.6 hPa 1.5 m/s 30.0 mm
 06:01     21:41    Daglengte: 15:40 Woensdag 26 Jun
02:00 22.4° 1017.9 hPa 2.9 m/s 30.0 mm 22.5° 1017.9 hPa 3.1 m/s 20.8° 1018.4 hPa 0.9 m/s 30.0 mm
05:00 22.7° 1017.7 hPa 3.3 m/s 30.0 mm 23.1° 1017.7 hPa 3.5 m/s 19.2° 1017.9 hPa 1.2 m/s 30.0 mm
08:00 23.4° 1017.5 hPa 3.7 m/s 30.0 mm 23.6° 1017.5 hPa 3.9 m/s 21.7° 1017.8 hPa 1.8 m/s 30.0 mm
11:00 30.2° 1016.8 hPa 2.9 m/s 30.0 mm 30.2° 1016.8 hPa 3.0 m/s 29.2° 1017.2 hPa 1.3 m/s 30.0 mm
14:00 36.7° 1016.1 hPa 2.1 m/s 30.0 mm 36.9° 1016.1 hPa 2.2 m/s 34.2° 1016.3 hPa 0.9 m/s 30.0 mm
17:00 35.2° 1015.8 hPa 3.1 m/s 30.0 mm 35.3° 1015.9 hPa 3.2 m/s 34.2° 1014.9 hPa 1.6 m/s 30.0 mm
20:00 33.4° 1015.6 hPa 4.0 m/s 30.0 mm 33.7° 1015.7 hPa 4.3 m/s 30.0° 1015.0 hPa 0.7 m/s 30.0 mm
 06:01     21:41    Daglengte: 15:40 Donderdag 27 Jun
02:00 24.0° 1017.4 hPa 3.7 m/s 30.0 mm 24.2° 1017.4 hPa 3.9 m/s 21.7° 1017.3 hPa 1.5 m/s 30.0 mm
08:00 24.4° 1017.2 hPa 3.9 m/s 30.0 mm 24.5° 1017.1 hPa 4.2 m/s 23.4° 1018.3 hPa 0.2 m/s 30.0 mm
14:00 36.0° 1016.0 hPa 1.6 m/s 30.0 mm 36.7° 1015.9 hPa 1.5 m/s 28.7° 1016.9 hPa 2.2 m/s 30.0 mm
20:00 32.7° 1015.2 hPa 1.7 m/s 30.7 mm 33.4° 1015.1 hPa 1.6 m/s 25.4° 1016.2 hPa 2.7 m/s 30.7 mm
 06:02     21:41    Daglengte: 15:39 Vrijdag 28 Jun
02:00 24.3° 1017.2 hPa 1.7 m/s 32.5 mm 24.6° 1017.1 hPa 1.8 m/s 21.6° 1018.0 hPa 0.7 m/s 32.5 mm
08:00 25.4° 1016.1 hPa 2.6 m/s 32.8 mm 25.8° 1016.0 hPa 2.7 m/s 20.6° 1017.8 hPa 1.1 m/s 32.8 mm
14:00 35.7° 1013.8 hPa 1.7 m/s 33.0 mm 36.9° 1013.5 hPa 1.7 m/s 22.8° 1016.7 hPa 2.0 m/s 33.0 mm
20:00 33.8° 1011.6 hPa 1.0 m/s 33.3 mm 34.9° 1011.3 hPa 1.0 m/s 21.3° 1015.4 hPa 1.5 m/s 33.3 mm
 06:02     21:41    Daglengte: 15:39 Zaterdag 29 Jun
02:00 23.9° 1012.9 hPa 2.7 m/s 33.3 mm 24.3° 1012.6 hPa 2.9 m/s 19.6° 1016.3 hPa 0.3 m/s 33.3 mm
08:00 20.3° 1015.2 hPa 0.3 m/s 33.3 mm 20.3° 1015.2 hPa 0.3 m/s 33.3 mm
14:00 29.2° 1013.6 hPa 0.7 m/s 0.1 mm
20:00 27.3° 1012.7 hPa 1.0 m/s 0.6 mm
 06:03     21:41    Daglengte: 15:38 Zondag 30 Jun
02:00 18.6° 1014.6 hPa 0.7 m/s 0.5 mm
08:00 19.8° 1015.1 hPa 0.9 m/s 0.6 mm
14:00 27.2° 1014.4 hPa 0.8 m/s 0.8 mm
20:00 25.2° 1014.1 hPa 1.7 m/s 2.0 mm
 06:03     21:41    Daglengte: 15:38 Maandag 01 Jul
02:00 17.0° 1016.2 hPa 0.8 m/s 0.9 mm
08:00 18.2° 1016.6 hPa 1.1 m/s 0.5 mm
14:00 24.8° 1015.7 hPa 2.0 m/s 0.9 mm
20:00 23.0° 1015.3 hPa 2.0 m/s 1.2 mm
 06:04     21:41    Daglengte: 15:37 Dinsdag 02 Jul
02:00 15.6° 1016.8 hPa 0.5 m/s 0.6 mm
08:00 17.1° 1016.5 hPa 1.0 m/s 0.2 mm
14:00 24.2° 1015.1 hPa 1.4 m/s 0.9 mm
20:00 22.5° 1014.5 hPa 1.5 m/s 1.7 mm
 06:04     21:40    Daglengte: 15:36 Woensdag 03 Jul
02:00 14.9° 1015.7 hPa 0.6 m/s 1.7 mm
08:00 16.5° 1015.8 hPa 1.1 m/s 1.2 mm
14:00 23.0° 1015.0 hPa 1.9 m/s 1.6 mm
20:00 21.8° 1015.0 hPa 1.6 m/s 1.7 mm
 06:05     21:40    Daglengte: 15:35 Donderdag 04 Jul
02:00 14.9° 1016.6 hPa 0.6 m/s 0.5 mm
08:00 16.2° 1017.1 hPa 0.8 m/s 1.2 mm
14:00 23.1° 1016.4 hPa 1.0 m/s 1.3 mm